Regional Weather Roundup
Issued by NWS

Home | Current Version | Previous Version | Graphics & Text | Print | Product List | Glossary On
Versions: 1 2 3 4 5 6 7 8 9 10 11 12 13 14 15 16 17 18 19 20 21 22 23 24 25 26 27 28 29 30 31 32 33 34 35 36 37 38 39 40 41 42 43 44 45 46 47 48 49 50
000
ASUS43 KIND 231659
RWRIN

WEATHER ROUNDUP FOR INDIANA
NATIONAL WEATHER SERVICE INDIANAPOLIS IN
100 PM EDT TUE AUG 23 2016

NOTE: "FAIR" INDICATES FEW OR NO CLOUDS BELOW 12,000 FEET WITH NO
SIGNIFICANT WEATHER AND/OR OBSTRUCTIONS TO VISIBILITY.

* - STATION DOES NOT REPORT WEATHER SUCH AS PRECIPITATION OR FOG.

+ - STATION NOT QUALITY CONTROLLED BY THE NATIONAL WEATHER SERVICE.
    USE DATA WITH CAUTION...ESPECIALLY DEWPOINT AND RELATIVE
    HUMIDITY OBSERVATIONS.

INZ001>003-010>013-019-020-231800-
NORTHWEST INDIANA

CITY           SKY/WX    TMP DP  RH WIND       PRES   REMARKS
GARY /AIRPORT/ PTSUNNY   77  61  57 SW3       30.23F
KNOX *+        PTSUNNY   77  36  22 S10       30.25F
MONTICELLO +   MOSUNNY   79  56  44 S9        30.25F
RENSSELAER +   PTSUNNY   77  61  57 SW12      30.25F

$$

LMZ046-743>745-231800-
SOUTHERN LAKE MICHIGAN

STATION/POSITION TIME  TEMP    WIND        PRES    WAVE
                       AIR SEA DIR/SP/G            HT
                 (UTC) (F)     (DEG/KT/KT) (MB)    (FT)
BURNS HARBOR     1602   76     180/  9/ 18 1024.4S
MICHIGAN CITY    1600   74     180/ 15/ 17   N/A
5NW MICH CITY    1600   74 73  190/ 10/ 16   N/A     1

$$

INZ004-005-014>016-021>024-231800-
NORTH CENTRAL INDIANA

CITY           SKY/WX    TMP DP  RH WIND       PRES   REMARKS
ELKHART        SUNNY     75  59  57 S12       30.28
GOSHEN         PTSUNNY   75  57  53 SW12      30.26F
SOUTH BEND     MOSUNNY   77  59  53 S14G20    30.25F

$$

INZ006>009-017-018-025>027-231800-
NORTHEAST INDIANA

CITY           SKY/WX    TMP DP  RH WIND       PRES   REMARKS
ANGOLA *+      PTSUNNY   79  61  53 SW10      30.27F
FORT WAYNE     PTSUNNY   76  57  51 S8        30.28F

$$

INZ028-029-035-036-043>045-051>053-231800-
WEST CENTRAL INDIANA

CITY           SKY/WX    TMP DP  RH WIND       PRES   REMARKS
CRAWFORDSVL +  MOSUNNY   76  61  61 S9        30.27F
GREENCASTLE +  CLOUDY    77  64  65 SW5       30.28F
LAFAYETTE      MOSUNNY   77  60  55 SW9       30.25F
TERRE HAUTE    CLOUDY    80  60  50 S12       30.25F

$$

INZ030>032-037>040-046>048-054>057-064-065-231800-
CENTRAL INDIANA

CITY           SKY/WX    TMP DP  RH WIND       PRES   REMARKS
ANDERSON       MOSUNNY   75  59  57 S6        30.29F
INDIANAPOLIS   PTSUNNY   78  59  51 SW12      30.27F
-EAGLE CREEK   PTSUNNY   78  58  49 SW12      30.27F
KOKOMO *+      MOSUNNY   79  57  47 S13       30.27F
MT COMFORT *+  PTSUNNY   77  61  57 S8        30.29F
SHELBYVILLE    MOSUNNY   77  60  55 VRB6      30.28F

$$

INZ033-034-041-042-049-050-058-059-231800-
EAST CENTRAL INDIANA

CITY           SKY/WX    TMP DP  RH WIND       PRES   REMARKS
MUNCIE         MOSUNNY   77  59  53 SW9       30.29F

$$

INZ060-061-067>069-081>083-085>088-231800-
SOUTHWEST INDIANA

CITY           SKY/WX    TMP DP  RH WIND       PRES   REMARKS
EVANSVILLE     MOSUNNY   79  60  52 SE9       30.25F
HUNTINGBURG *+ MOSUNNY   79  61  53 S12       30.26F

$$

INZ062-063-066-070>080-084-089>092-231800-
SOUTH CENTRAL AND SOUTHEAST INDIANA

CITY           SKY/WX    TMP DP  RH WIND       PRES   REMARKS
BLOOMINGTON    MOSUNNY   79  59  50 S7        30.27F
MADISON *+     MOSUNNY   81  57  44 S5        30.30F

$$





USA.gov is the U.S. government's official web portal to all federal, state and local government web resources and services.